Terminal Aerodrome Forecast
Issued by NWS Grand Forks, ND

Home | Current Version | Previous Version | Text Only | Print | Product List | Glossary Off
Versions: 1 2 3 4 5 6 7 8 9 10 11 12 13 14 15 16 17 18 19 20 21

000
FTUS43 KFGF 270800 AAA
TAFFAR
TAF AMD
KFAR 270833Z 2709/2806 00000KT P6SM BKN250
      TEMPO 2709/2712 2SM BR BKN004
     FM271400 16010KT P6SM BKN250=

USA.gov is the U.S. government's official web portal to all federal, state and local government web resources and services.